Location: Unspecified
(41.5000°N, 0.0000°E)
Time: 22:10:20
(UTC+00:00)

deb Explorer IX - Pass Details

Date: 07 October 2020
Orbit: 537 x 1106 km, 38.8° (Epoch: 26 October)

Event Time Altitude Azimuth Distance (km) Brightness Sun altitude
Rises 18:40:43 0° 276° (W) 3,167 ? -13.8°
Reaches altitude 10° 18:43:38 10° 264° (W) 2,138 ? -14.4°
Maximum altitude 18:47:40 26° 208° (SSW) 1,247 ? -15.1°
Enters shadow 18:51:10 11° 153° (SSE) 1,861 ? -15.8°
